This demonstration page uses our WeatherBlox Daily Observations layout. Learn more.

40.92945, -100.16068

Hourly Observations for January 28, 2018

Temp ( °F °C ) Dew Point ( °F °C ) Humidity (%) Winds ( mph kmh ) Pressure ( in mb ) Visibility ( mi km ) Precip ( " mm )
12:15 am 00:15 Clear 26 -3.6 22 -5.7 86 86 N 5 7 30.42 1030 10 16.0934 0 0
12:35 am 00:35 Clear 26 -3.5 22 -5.8 84 84 N 3 6 30.42 1030 10 16.0934 0 0
12:55 am 00:55 Clear 26 -3.6 22 -5.8 85 85 N 6 9 30.42 1030 10 16.0934 0 0
1:15 am 01:15 Clear 27 -2.6 21 -6 78 78 NNE 8 13 30.42 1030 10 16.0934 0 0
1:35 am 01:35 Clear 28 -2.3 21 -6 76 76 NNE 9 15 30.42 1030 10 16.0934 0 0
1:55 am 01:55 Clear 28 -2.4 22 -5.5 80 80 NE 8 13 30.42 1030 10 16.0934 0 0
2:15 am 02:15 Clear 27 -2.6 23 -5.1 83 83 NE 10 17 30.42 1030 10 16.0934 0 0
2:35 am 02:35 Clear 27 -3 23 -5 86 86 NE 8 13 30.45 1031 10 16.0934 0 0
2:55 am 02:55 Clear 26 -3.1 23 -5.2 86 86 NE 8 13 30.45 1031 10 16.0934 0 0
3:15 am 03:15 Clear 26 -3.5 22 -5.6 86 86 ENE 7 11 30.45 1031 10 16.0934 0 0
3:35 am 03:35 Clear 25 -3.9 21 -6 86 86 ENE 7 11 30.45 1031 10 16.0934 0 0
3:55 am 03:55 Clear 24 -4.3 20 -6.6 84 84 ENE 6 9 30.48 1032 10 16.0934 0 0
4:15 am 04:15 Clear 24 -4.6 19 -7 84 84 ENE 8 13 30.45 1031 10 16.0934 0 0
4:35 am 04:35 Mostly Cloudy 23 -4.8 19 -7 85 85 ENE 7 11 30.45 1031 10 16.0934 0 0
4:55 am 04:55 Cloudy 24 -4.6 20 -6.5 87 87 NE 8 13 30.45 1031 10 16.0934 0 0
5:15 am 05:15 Cloudy 24 -4.7 20 -6.6 87 87 NNE 8 13 30.48 1032 10 16.0934 0 0
5:35 am 05:35 Cloudy 23 -5 19 -7.1 85 85 NE 10 17 30.48 1032 10 16.0934 0 0
5:55 am 05:55 Cloudy 23 -5.2 19 -7.2 86 86 NE 8 13 30.48 1032 10 16.0934 0 0
6:15 am 06:15 Cloudy 22 -5.5 17 -8.4 80 80 NE 10 17 30.5 1033 10 16.0934 0 0
6:35 am 06:35 Cloudy 21 -6 16 -9.1 79 79 NE 10 17 30.5 1033 10 16.0934 0 0
6:55 am 06:55 Mostly Cloudy 21 -6.2 15 -9.4 78 78 NE 10 17 30.5 1033 10 16.0934 0 0
7:15 am 07:15 Mostly Cloudy 21 -6.3 15 -9.2 80 80 ENE 10 17 30.5 1033 10 16.0934 0 0
7:35 am 07:35 Cloudy 20 -6.5 15 -9.2 81 81 ENE 10 17 30.5 1033 10 16.0934 0 0
7:55 am 07:55 Cloudy 20 -6.5 16 -9 83 83 ENE 9 15 30.5 1033 10 16.0934 0 0
8:15 am 08:15 Mostly Cloudy 20 -6.6 16 -9.1 83 83 ENE 8 13 30.5 1033 10 16.0934 0 0
8:35 am 08:35 Partly Cloudy 20 -6.8 16 -9.1 84 84 ENE 7 11 30.5 1033 10 16.0934 0 0
8:55 am 08:55 Sunny 20 -6.6 16 -9 83 83 NE 8 13 30.53 1034 10 16.0934 0 0
9:15 am 09:15 Sunny 21 -6.2 16 -9 81 81 NE 8 13 30.53 1034 10 16.0934 0 0
9:35 am 09:35 Partly Cloudy 21 -6.2 16 -9 81 81 NE 7 11 30.56 1035 10 16.0934 0 0
9:55 am 09:55 Mostly Cloudy 21 -6 16 -8.8 81 81 NE 9 15 30.56 1035 10 16.0934 0 0
10:15 am 10:15 Mostly Cloudy 22 -5.8 17 -8.5 81 81 NNE 10 17 30.56 1035 10 16.0934 0 0
10:35 am 10:35 Cloudy 22 -5.5 17 -8.5 80 80 NNE 9 15 30.56 1035 10 16.0934 0 0
10:55 am 10:55 Cloudy 22 -5.5 17 -8.5 80 80 NNE 8 13 30.56 1035 10 16.0934 0 0
11:15 am 11:15 Mostly Cloudy 22 -5.5 17 -8.6 79 79 ENE 8 13 30.56 1035 10 16.0934 0 0
11:35 am 11:35 Partly Cloudy 23 -5.1 17 -8.5 77 77 NE 8 13 30.56 1035 10 16.0934 0 0
11:55 am 11:55 Partly Cloudy 23 -4.8 17 -8.3 77 77 ENE 7 11 30.56 1035 10 16.0934 0 0
12:15 pm 12:15 Partly Cloudy 24 -4.4 18 -8 76 76 N 6 9 30.53 1034 10 16.0934 0 0
12:35 pm 12:35 Mostly Cloudy 24 -4.2 18 -8 75 75 NNE 10 17 30.53 1034 10 16.0934 0 0
12:55 pm 12:55 Mostly Cloudy 24 -4.2 17 -8.2 74 74 NNE 7 11 30.53 1034 10 16.0934 0 0
1:15 pm 13:15 Mostly Cloudy 25 -3.8 18 -8 73 73 N 8 13 30.53 1034 10 16.0934 0 0
1:35 pm 13:35 Mostly Cloudy 25 -4 17 -8.3 72 72 NNE 7 11 30.53 1034 10 16.0934 0 0
1:55 pm 13:55 Mostly Cloudy 25 -3.8 17 -8.3 71 71 NE 6 9 30.53 1034 10 16.0934 0 0
2:15 pm 14:15 Mostly Cloudy 25 -3.7 18 -7.7 74 74 NNE 8 13 30.53 1034 10 16.0934 0 0
2:35 pm 14:35 Mostly Cloudy 26 -3.3 19 -7.5 73 73 NNE 8 13 30.53 1034 10 16.0934 0 0
2:55 pm 14:55 Partly Cloudy 26 -3.4 17 -8.1 70 70 N 8 13 30.53 1034 10 16.0934 0 0
3:15 pm 15:15 Sunny 26 -3.1 18 -7.7 71 71 N 7 11 30.53 1034 10 16.0934 0 0
3:35 pm 15:35 Sunny 27 -3 18 -7.9 69 69 N 7 11 30.53 1034 10 16.0934 0 0
3:55 pm 15:55 Partly Cloudy 27 -2.6 19 -7.5 69 69 N 10 17 30.56 1035 10 16.0934 0 0
4:15 pm 16:15 Partly Cloudy 27 -2.7 18 -7.8 68 68 N 9 15 30.56 1035 10 16.0934 0 0
4:35 pm 16:35 Partly Cloudy 27 -2.9 18 -8 68 68 N 9 15 30.56 1035 10 16.0934 0 0
4:55 pm 16:55 Sunny 27 -3 18 -8 69 69 NNE 9 15 30.56 1035 10 16.0934 0 0
5:15 pm 17:15 Sunny 26 -3.3 17 -8.1 70 70 N 9 15 30.59 1036 10 16.0934 0 0
5:35 pm 17:35 Sunny 25 -3.8 17 -8.3 71 71 N 9 15 30.59 1036 10 16.0934 0 0
5:55 pm 17:55 Clear 25 -4.1 18 -8 75 75 N 6 9 30.65 1038 10 16.0934 0 0
6:15 pm 18:15 Mostly Cloudy 25 -4 18 -7.8 75 75 N 6 9 30.65 1038 10 16.0934 0 0
6:35 pm 18:35 Cloudy 25 -4 18 -7.9 75 75 NNE 7 11 30.65 1038 10 16.0934 0 0
6:55 pm 18:55 Cloudy 25 -4.1 18 -8 75 75 NNE 8 13 30.65 1038 10 16.0934 0 0
7:15 pm 19:15 Partly Cloudy 23 -4.8 17 -8.5 76 76 N 8 13 30.68 1039 10 16.0934 0 0
7:35 pm 19:35 Clear 23 -5.2 17 -8.6 77 77 N 6 9 30.68 1039 10 16.0934 0 0
7:55 pm 19:55 Clear 22 -5.7 17 -8.5 81 81 N 7 11 30.71 1040 10 16.0934 0 0
8:15 pm 20:15 Partly Cloudy 21 -6.1 16 -8.8 81 81 NNW 5 7 30.71 1040 10 16.0934 0 0
8:35 pm 20:35 Mostly Cloudy 21 -6.3 16 -8.8 83 83 NNE 5 7 30.74 1041 10 16.0934 0 0
8:55 pm 20:55 Clear 21 -6.3 16 -9.1 81 81 NNE 8 13 30.74 1041 10 16.0934 0 0
9:15 pm 21:15 Clear 20 -6.9 15 -9.6 81 81 NNE 7 11 30.74 1041 10 16.0934 0 0
9:35 pm 21:35 Clear 19 -7 14 -9.8 81 81 NNE 6 9 30.74 1041 10 16.0934 0 0
9:55 pm 21:55 Clear 19 -7.2 14 -10 81 81 NNE 6 9 30.74 1041 10 16.0934 0 0
10:15 pm 22:15 Clear 18 -7.7 14 -10.1 83 83 N 7 11 30.74 1041 10 16.0934 0 0
10:35 pm 22:35 Clear 18 -8 13 -10.5 82 82 N 8 13 30.74 1041 10 16.0934 0 0
10:55 pm 22:55 Clear 18 -7.9 13 -10.6 81 81 NNE 8 13 30.74 1041 10 16.0934 0 0
11:15 pm 23:15 Clear 17 -8.2 13 -10.8 82 82 N 5 7 30.74 1041 10 16.0934 0 0
11:35 pm 23:35 Clear 16 -8.7 12 -11 84 84 N 3 6 30.74 1041 10 16.0934 0 0
11:55 pm 23:55 Clear 16 -8.9 12 -11.2 84 84 N 3 6 30.8 1043 10 16.0934 0 0

Powered by AerisWeather